Location: New Plymouth
(39.0670°S, 174.0830°E)
Time: 20:50:44
(UTC+13:00)

NOAA 19 - Pass Details

Date: 19 August 2019
Orbit: 840 x 862 km, 99.2° (Epoch: 16 October)

Event Time Altitude Azimuth Distance (km) Brightness Sun altitude
Rises 05:19:34 0° 2° (N) 3,386 8.4 -21.3°
Reaches altitude 10° 05:21:58 10° 356° (N) 2,459 7.6 -20.8°
Maximum altitude 05:27:16 51° 281° (W) 1,058 5.3 -19.8°
Drops below altitude 10° 05:32:38 10° 205° (SSW) 2,492 7.4 -18.8°
Sets 05:35:06 0° 199° (SSW) 3,436 8.2 -18.3°
